Weather History for KACT - May, 2013

Change the Weather History Date:

Tuesday, May 7, 2013

  Actual Average Record
Temperature  
Mean Temperature 66 °F 72 °F  
Max Temperature 85 °F 83 °F 98 °F (1998)
Min Temperature 47 °F 61 °F 43 °F (1992)
Degree Days  
Heating Degree Days 0 0  
Month to date heating degree days 41 4  
Since 1 July heating degree days 2023 2140  
Cooling Degree Days 1 7  
Month to date cooling degree days 10 46  
Year to date cooling degree days 148 200  
Growing Degree Days 15 (Base 50)    
Moisture  
Dew Point 50 °F    
Average Humidity 65    
Maximum Humidity 100    
Minimum Humidity 29    
Precipitation  
Precipitation 0.00 in 0.14 in 1.32 in (1910)
Month to date precipitation T 0.98  
Year to date precipitation 10.73 11.57  
Sea Level Pressure  
Sea Level Pressure 30.00 in    
Wind  
Wind Speed 6 mph (South)    
Max Wind Speed 14 mph    
Max Gust Speed 16 mph    
Visibility 10 miles    
Events      
T = Trace of Precipitation, MM = Missing Value Source: NWS Daily Summary

Daily Weather History Graph

Daily Weather History Graph

Search for Another Location

Airport or City:

Trip Planner

Search our weather history database for the weather conditions in past years. The results will help you decide how hot, cold, wet, or windy it might be!

Date:

Astronomy

May. 07, 2013 Rise Set
Actual Time 6:38 AM CDT 8:13 PM CDT
Civil Twilight 6:11 AM CDT 8:39 PM CDT
Nautical Twilight 5:40 AM CDT 9:11 PM CDT
Astronomical Twilight 5:07 AM CDT 9:44 PM CDT
Moon 5:04 AM CDT (5/7) 6:20 PM CDT (5/7)
Length of Visible Light 14h 27m
Length of Day
13h 35m
Waning Crescent, 5% of the Moon is Illuminated
May 7
Waning Crescent
May 9
New
May 17
First Quarter
May 24
Full
May 31
Last Quarter

Hourly Weather History & Observations

Time (CDT) Temp. Dew Point Humidity Pressure Visibility Wind Dir Wind Speed Gust Speed Precip Events Conditions
12:51 AM 59.0 °F 54.0 °F 83% 30.02 in 10.0 mi West 3.5 mph - N/A   Clear
1:51 AM 54.0 °F 50.0 °F 86% 30.03 in 10.0 mi WSW 4.6 mph - N/A   Clear
2:51 AM 55.9 °F 52.0 °F 87% 30.02 in 10.0 mi SW 3.5 mph - N/A   Scattered Clouds
3:51 AM 54.0 °F 50.0 °F 86% 30.02 in 10.0 mi Calm Calm - N/A   Clear
4:51 AM 54.0 °F 50.0 °F 86% 30.03 in 10.0 mi Calm Calm - N/A   Scattered Clouds
5:51 AM 48.9 °F 46.9 °F 93% 30.04 in 10.0 mi WSW 3.5 mph - N/A   Clear
6:51 AM 48.9 °F 48.0 °F 97% 30.05 in 10.0 mi Calm Calm - N/A   Clear
7:51 AM 57.9 °F 53.1 °F 84% 30.06 in 10.0 mi Calm Calm - N/A   Clear
8:51 AM 64.9 °F 54.0 °F 68% 30.06 in 10.0 mi Calm Calm - N/A   Clear
9:51 AM 72.0 °F 50.0 °F 46% 30.08 in 10.0 mi Calm Calm - N/A   Clear
10:51 AM 75.2 °F 50.0 °F 41% 30.08 in 10.0 mi SSE 6.9 mph - N/A   Clear
11:51 AM 78.1 °F 51.1 °F 39% 30.06 in 10.0 mi South 9.2 mph - N/A   Clear
12:51 PM 80.1 °F 50.0 °F 35% 30.03 in 10.0 mi SSW 8.1 mph - N/A   Clear
1:51 PM 82.0 °F 50.0 °F 33% 30.01 in 10.0 mi South 4.6 mph - N/A   Clear
2:51 PM 84.0 °F 48.9 °F 29% 29.99 in 10.0 mi SSW 9.2 mph - N/A   Clear
3:51 PM 84.0 °F 48.9 °F 29% 29.96 in 10.0 mi SSW 6.9 mph - N/A   Clear
4:51 PM 84.0 °F 48.0 °F 28% 29.94 in 10.0 mi South 8.1 mph - N/A   Clear
5:51 PM 84.0 °F 48.0 °F 28% 29.93 in 10.0 mi South 9.2 mph - N/A   Clear
6:51 PM 82.9 °F 48.0 °F 29% 29.91 in 10.0 mi SSE 11.5 mph - N/A   Clear
7:51 PM 79.0 °F 48.0 °F 34% 29.92 in 10.0 mi SSE 8.1 mph - N/A   Clear
8:51 PM 72.0 °F 50.0 °F 46% 29.93 in 10.0 mi SE 5.8 mph - N/A   Clear
9:51 PM 69.1 °F 51.1 °F 53% 29.94 in 10.0 mi ESE 8.1 mph - N/A   Clear
10:51 PM 68.0 °F 51.1 °F 55% 29.94 in 10.0 mi SE 8.1 mph - N/A   Clear
11:51 PM 70.0 °F 51.1 °F 51% 29.95 in 10.0 mi SE 5.8 mph - N/A   Clear